CW9181 Weather Reports


time (UTC)temp
F
wind
direction
speed
knots
gust
knots
rain 1hr
in
rain 24hr
in
rain mn
in
humidity
%
barometer
mb
20260906174024 72 161 3.5 7.0 0.00 0.00 0.00 53 1014.7
20260906173029 71 141 2.6 7.8 0.00 0.00 0.00 53 1014.6
20260906172008 71 180 4.3 7.0 0.00 0.00 0.00 54 1014.6
20260906171008 70 168 5.2 7.8 0.00 0.00 0.00 55 1014.6
20260906170008 70 162 4.3 8.7 0.00 0.01 0.00 54 1014.6
20260906165008 69 159 4.3 8.7 0.00 0.01 0.00 55 1014.6
20260906164009 69 178 3.5 9.6 0.00 0.01 0.00 55 1014.5
20260906163044 69 180 4.3 7.8 0.00 0.01 0.00 56 1014.5
20260906162024 68 157 4.3 8.7 0.00 0.01 0.00 59 1014.6
20260906161044 67 139 3.5 6.1 0.00 0.01 0.00 62 1014.6
20260906160020 66 159 5.2 7.8 0.00 0.01 0.00 65 1014.6
20260906155023 65 165 5.2 7.8 0.00 0.01 0.00 68 1014.6
20260906154042 64 170 3.5 7.8 0.00 0.01 0.00 71 1014.6
20260906153020 63 218 2.6 7.8 0.00 0.01 0.00 72 1014.7
20260906152042 63 186 3.5 8.7 0.00 0.01 0.00 74 1014.7
20260906151019 62 109 3.5 7.8 0.00 0.01 0.00 75 1014.8
20260906150017 61 143 5.2 8.7 0.00 0.01 0.00 76 1014.7
20260906145039 60 126 4.3 7.0 0.00 0.01 0.00 78 1014.7
20260906144014 59 132 3.5 7.0 0.00 0.01 0.00 78 1014.7
20260906143013 59 123 1.7 5.2 0.00 0.01 0.00 77 1014.5
20260906142017 58 202 3.5 6.1 0.00 0.01 0.00 77 1014.3
20260906141017 58 100 1.7 3.5 0.00 0.01 0.00 77 1014.3
20260906140036 58 132 1.7 5.2 0.00 0.01 0.00 77 1014.1
20260906135019 58 135 2.6 4.3 0.00 0.01 0.00 76 1014.0
20260906134015 58 130 1.7 4.3 0.00 0.01 0.00 77 1013.9
20260906133017 58 116 1.7 3.5 0.00 0.01 0.00 76 1014.0
20260906132017 58 111 1.7 3.5 0.00 0.01 0.00 75 1013.9
20260906131017 58 107 2.6 4.3 0.00 0.01 0.00 74 1013.7
20260906130013 58 110 1.7 4.3 0.00 0.01 0.00 73 1013.8
20260906125012 58 141 2.6 4.3 0.00 0.01 0.00 72 1013.7
20260906124010 58 134 2.6 4.3 0.00 0.01 0.00 72 1013.7
20260906123009 58 139 1.7 4.3 0.00 0.01 0.00 73 1013.7
20260906122036 58 103 2.6 3.5 0.00 0.01 0.00 73 1013.5
20260906121013 58 119 1.7 3.5 0.00 0.01 0.00 72 1013.7
20260906120012 58 131 0.9 1.7 0.00 0.01 0.00 72 1013.6
20260906115012 58 130 1.7 2.6 0.00 0.01 0.00 72 1013.5
20260906114006 59 111 1.7 3.5 0.00 0.01 0.00 72 1013.5
20260906113012 59 145 1.7 3.5 0.00 0.01 0.00 72 1013.6
20260906112012 59 131 0.9 4.3 0.00 0.01 0.00 71 1013.5
20260906111011 59 125 2.6 3.5 0.00 0.01 0.00 71 1013.5
20260906110012 59 134 1.7 2.6 0.00 0.01 0.00 70 1013.4
20260906105011 60 127 1.7 3.5 0.00 0.01 0.00 70 1013.3
20260906104006 60 141 2.6 4.3 0.00 0.01 0.00 70 1013.3
20260906103013 60 175 1.7 3.5 0.00 0.01 0.00 69 1013.4
20260906102017 60 163 0.9 3.5 0.00 0.01 0.00 68 1013.4
20260906101020 61 164 1.7 3.5 0.00 0.01 0.00 67 1013.4
20260906100015 61 129 1.7 7.8 0.00 0.01 0.00 65 1013.3
20260906095038 61 157 2.6 7.8 0.00 0.01 0.00 64 1013.3
20260906094022 62 154 3.5 4.3 0.00 0.01 0.00 63 1013.3
20260906093036 62 175 2.6 6.1 0.00 0.01 0.00 60 1013.4
20260906092018 62 162 2.6 5.2 0.00 0.01 0.00 59 1013.4
20260906091039 63 193 1.7 5.2 0.00 0.01 0.00 57 1013.5
20260906090016 63 178 2.6 5.2 0.00 0.01 0.00 58 1013.5
20260906085021 63 161 1.7 3.5 0.00 0.01 0.00 57 1013.7
20260906084027 63 143 1.7 4.3 0.00 0.01 0.00 57 1013.7
20260906083026 63 139 1.7 2.6 0.00 0.01 0.00 58 1013.6
20260906082011 63 151 1.7 3.5 0.00 0.01 0.00 57 1013.5
20260906081014 64 161 1.7 4.3 0.00 0.01 0.00 56 1013.5
20260906080015 64 134 1.7 4.3 0.00 0.01 0.00 55 1013.5
20260906075018 64 140 1.7 2.6 0.00 0.01 0.00 55 1013.6
20260906074021 64 114 1.7 3.5 0.00 0.01 0.00 55 1013.6
20260906073020 64 118 1.7 3.5 0.00 0.01 0.00 55 1013.7
20260906072042 65 135 0.9 2.6 0.00 0.01 0.00 54 1013.7
20260906071022 65 125 0.0 2.6 0.00 0.01 0.00 53 1013.7
20260906070019 66 107 1.7 3.5 0.00 0.01 0.00 52 1013.7
20260906065026 66 145 0.9 2.6 0.00 0.01 0.01 51 1013.6
20260906064021 66 132 1.7 2.6 0.00 0.01 0.01 50 1013.5
20260906063017 67 119 1.7 3.5 0.00 0.01 0.01 49 1013.7
20260906062012 67 115 0.9 2.6 0.00 0.01 0.01 51 1013.6
20260906061026 68 132 0.9 2.6 0.00 0.01 0.01 50 1013.7
20260906060025 68 152 1.7 2.6 0.00 0.01 0.01 50 1013.7
20260906055023 69 149 0.9 3.5 0.00 0.01 0.01 49 1013.7
20260906054016 69 119 1.7 2.6 0.00 0.01 0.01 48 1013.7
20260906053011 70 167 0.0 2.6 0.00 0.01 0.01 48 1013.5
20260906052013 70 135 1.7 5.2 0.00 0.01 0.01 47 1013.6
20260906051029 71 228 0.9 3.5 0.00 0.01 0.01 46 1013.3
20260906050008 71 235 0.0 7.0 0.00 0.01 0.01 46 1013.3
20260906045010 72 226 1.7 5.2 0.00 0.01 0.01 46 1013.3
20260906044040 72 233 0.9 4.3 0.00 0.01 0.01 46 1013.3
20260906043011 73 206 2.6 4.3 0.00 0.01 0.01 46 1013.3
20260906042028 73 242 1.7 7.0 0.00 0.01 0.01 45 1013.2
20260906041008 74 241 1.7 7.8 0.00 0.01 0.01 44 1013.2
20260906040028 74 251 0.9 4.3 0.00 0.01 0.01 44 1013.2
20260906035022 75 182 1.7 3.5 0.00 0.01 0.01 43 1012.9
20260906034025 75 241 1.7 4.3 0.00 0.01 0.01 42 1012.8
20260906033045 76 230 2.6 6.1 0.00 0.01 0.01 41 1012.8
20260906032016 76 251 1.7 7.8 0.00 0.01 0.01 40 1012.8
20260906031036 76 253 1.7 5.2 0.00 0.01 0.01 37 1012.6
20260906030013 77 260 0.9 4.3 0.00 0.01 0.01 35 1012.6
20260906025007 77 240 1.7 2.6 0.00 0.01 0.01 34 1012.5
20260906024026 78 211 0.9 2.6 0.00 0.01 0.01 34 1012.4
20260906023022 78 216 0.9 6.1 0.00 0.01 0.01 34 1012.5
20260906022016 79 170 4.3 8.7 0.00 0.01 0.01 33 1012.5
20260906021009 80 155 1.7 5.2 0.00 0.01 0.01 34 1012.5
20260906020024 81 218 1.7 7.0 0.00 0.01 0.01 34 1012.6
20260906015021 81 260 4.3 7.8 0.00 0.01 0.01 33 1012.6
20260906014021 82 172 2.6 5.2 0.00 0.01 0.01 35 1012.5
20260906013017 83 189 0.9 5.2 0.00 0.01 0.01 34 1012.5
20260906012010 83 241 3.5 7.0 0.00 0.01 0.01 33 1012.5
20260906011008 83 169 4.3 7.0 0.00 0.01 0.01 34 1012.6
20260906010009 83 176 1.7 7.0 0.00 0.01 0.01 34 1012.6
20260906005009 84 193 2.6 9.6 0.00 0.01 0.01 33 1012.6
20260906004044 84 216 1.7 8.7 0.00 0.01 0.01 34 1012.5
20260906003033 84 24 0.9 7.8 0.00 0.01 0.01 31 1012.6
20260906002006 84 216 4.3 9.6 0.00 0.01 0.01 32 1012.5
20260906001026 83 189 4.3 7.8 0.00 0.01 0.01 34 1012.6
20260906000023 83 162 3.5 7.0 0.00 0.01 0.01 33 1012.6
20260905235023 84 186 2.6 6.1 0.00 0.01 0.01 33 1012.7
20260905234020 84 316 1.7 5.2 0.00 0.01 0.01 32 1012.7
20260905233016 84 249 1.7 7.0 0.00 0.01 0.01 33 1012.7
20260905232027 83 213 1.7 4.3 0.00 0.01 0.01 33 1012.7
20260905231006 83 177 1.7 7.0 0.00 0.01 0.01 33 1012.8
20260905230047 83 260 1.7 3.5 0.00 0.01 0.01 34 1012.9
20260905225020 82 10 2.6 5.2 0.00 0.01 0.01 34 1013.1
20260905224016 81 341 1.7 7.0 0.00 0.01 0.01 35 1013.2
20260905223019 82 247 2.6 5.2 0.00 0.01 0.01 36 1013.2
20260905222013 81 265 0.9 7.0 0.00 0.01 0.01 35 1013.2
20260905221011 80 168 3.5 7.0 0.00 0.01 0.01 37 1013.3
20260905220010 80 241 2.6 5.2 0.00 0.01 0.01 37 1013.3
20260905215021 79 260 3.5 7.8 0.00 0.01 0.01 38 1013.5
20260905214022 80 357 3.5 7.0 0.00 0.01 0.01 36 1013.9
20260905213036 79 265 3.5 7.0 0.00 0.01 0.01 38 1013.8
20260905212032 79 239 3.5 8.7 0.00 0.01 0.01 37 1013.9
20260905211029 80 254 2.6 6.1 0.00 0.01 0.01 38 1014.0
20260905210026 79 65 0.9 7.0 0.00 0.01 0.01 38 1014.1
20260905205007 78 182 1.7 6.1 0.00 0.01 0.01 38 1014.1
20260905204025 79 192 3.5 8.7 0.00 0.01 0.01 37 1014.1
20260905203021 79 103 0.9 7.0 0.00 0.01 0.01 38 1014.2
20260905202018 79 89 3.5 7.0 0.00 0.01 0.01 38 1014.2
20260905201019 78 260 0.9 4.3 0.00 0.01 0.01 40 1014.3
20260905200011 78 192 1.7 3.5 0.00 0.01 0.01 40 1014.4
20260905195010 77 260 4.3 8.7 0.00 0.01 0.01 41 1014.5
20260905194013 78 120 1.7 7.0 0.00 0.01 0.01 44 1014.5
20260905193010 76 66 0.9 5.2 0.00 0.01 0.01 43 1014.6
20260905192028 77 236 1.7 6.1 0.00 0.01 0.01 47 1014.6
20260905191007 75 360 3.5 7.0 0.00 0.01 0.01 48 1014.8
20260905190041 75 278 2.6 7.0 0.00 0.01 0.01 45 1015.0
20260905185019 75 16 1.7 5.2 0.00 0.01 0.01 49 1015.0
20260905184016 74 201 3.5 7.0 0.00 0.01 0.01 50 1014.9
20260905183009 74 220 2.6 7.0 0.00 0.01 0.01 51 1015.0
20260905182015 74 54 0.9 5.2 0.00 0.01 0.01 55 1015.0
20260905181017 73 255 1.7 5.2 0.00 0.01 0.01 53 1015.0
20260905180021 72 279 0.9 5.2 0.00 0.01 0.01 55 1014.9
20260905175035 72 73 1.7 5.2 0.00 0.01 0.01 54 1014.8